14-10-2023, 00:00:07,    294,    0.0,    5.6,   0.00,   0.00, 1007.5,    0.3, -999.0
14-10-2023, 00:00:07,    294,    0.0,    5.6,   0.00,   0.00, 1007.5,    0.3, -999.0
14-10-2023, 00:00:17,    294,    1.0,    5.6,   0.00,   0.00, 1007.6,    0.3, -999.0
14-10-2023, 00:00:27,    294,    0.5,    5.6,   0.00,   0.00, 1007.5,    0.3, -999.0
14-10-2023, 00:00:37,    270,    1.5,    5.6,   0.00,   0.00, 1007.6,    0.4, -999.0
14-10-2023, 00:00:47,    271,    0.3,    5.7,   0.00,   0.00, 1007.5,    0.4, -999.0
14-10-2023, 00:00:57,    270,    1.2,    5.6,   0.00,   0.00, 1007.6,    0.5, -999.0
14-10-2023, 00:01:07,    317,    1.8,    5.6,   0.00,   0.00, 1007.6,    0.4, -999.0
14-10-2023, 00:01:17,    310,    2.1,    5.6,   0.00,   0.00, 1007.6,    0.5, -999.0
14-10-2023, 00:01:27,    272,    1.9,    5.6,   0.00,   0.00, 1007.6,    0.4, -999.0
14-10-2023, 00:01:37,    267,    1.9,    5.5,   0.00,   0.00, 1007.6,    0.4, -999.0
14-10-2023, 00:01:47,    250,    1.7,    5.6,   0.00,   0.00, 1007.6,    0.5, -999.0
14-10-2023, 00:01:57,    253,    0.7,    5.6,   0.00,   0.00, 1007.6,    0.5, -999.0
14-10-2023, 00:02:07,    252,    0.6,    5.7,   0.00,   0.00, 1007.6,    0.4, -999.0
14-10-2023, 00:02:17,    253,    0.4,    5.6,   0.00,   0.00, 1007.6,    0.5, -999.0
14-10-2023, 00:02:27,    253,    0.5,    5.6,   0.00,   0.00, 1007.6,    0.4, -999.0
14-10-2023, 00:02:37,    253,    0.2,    5.6,   0.00,   0.00, 1007.6,    0.3, -999.0
14-10-2023, 00:02:47,    254,    1.6,    5.6,   0.00,   0.00, 1007.6,    0.5, -999.0
14-10-2023, 00:02:57,    275,    2.4,    5.6,   0.00,   0.00, 1007.6,    0.3, -999.0
14-10-2023, 00:03:07,    303,    0.7,    5.6,   0.00,   0.00, 1007.6,    0.5, -999.0
14-10-2023, 00:03:17,    303,    0.0,    5.5,   0.00,   0.00, 1007.5,    0.2, -999.0
14-10-2023, 00:03:27,    297,    0.5,    5.6,   0.00,   0.00, 1007.6,    0.5, -999.0
14-10-2023, 00:03:37,    278,    1.9,    5.6,   0.00,   0.00, 1007.6,    0.4, -999.0
14-10-2023, 00:03:47,    250,    1.2,    5.6,   0.00,   0.00, 1007.6,    0.4, -999.0
14-10-2023, 00:03:57,    255,    1.6,    5.7,   0.00,   0.00, 1007.6,    0.4, -999.0
14-10-2023, 00:04:06,    256,    0.7,    5.6,   0.00,   0.00, 1007.6,    0.4, -999.0
14-10-2023, 00:04:17,    256,    1.0,    5.6,   0.00,   0.00, 1007.6,    0.4, -999.0
14-10-2023, 00:04:27,    256,    0.8,    5.6,   0.00,   0.00, 1007.7,    0.5, -999.0
14-10-2023, 00:04:36,    258,    1.0,    5.6,   0.00,   0.00, 1007.7,    0.5, -999.0
14-10-2023, 00:04:46,    280,    0.9,    5.5,   0.00,   0.00, 1007.6,    0.2, -999.0
14-10-2023, 00:04:57,    280,    0.5,    5.6,   0.00,   0.00, 1007.7,    0.4, -999.0
14-10-2023, 00:05:06,    280,    0.6,    5.6,   0.00,   0.00, 1007.6,    0.5, -999.0
14-10-2023, 00:05:16,    280,    0.0,    5.5,   0.00,   0.00, 1007.5,    0.6, -999.0
14-10-2023, 00:05:26,    280,    0.1,    5.6,   0.00,   0.00, 1007.6,    0.5, -999.0
14-10-2023, 00:05:37,    280,    0.0,    5.5,   0.00,   0.00, 1007.5,    0.4, -999.0
14-10-2023, 00:05:46,    280,    0.3,    5.6,   0.00,   0.00, 1007.6,    0.2, -999.0
14-10-2023, 00:05:56,    288,    1.6,    5.5,   0.00,   0.00, 1007.7,    0.7, -999.0
14-10-2023, 00:06:07,    289,    0.9,    5.6,   0.00,   0.00, 1007.7,    0.4, -999.0
14-10-2023, 00:06:16,    288,    1.6,    5.6,   0.00,   0.00, 1007.6,    0.7, -999.0
14-10-2023, 00:06:26,    289,    1.0,    5.6,   0.00,   0.00, 1007.7,    0.1, -999.0
14-10-2023, 00:06:36,    287,    0.6,    5.6,   0.00,   0.00, 1007.7,    0.0, -999.0
14-10-2023, 00:06:46,    264,    1.3,    5.6,   0.00,   0.00, 1007.7,    0.1, -999.0
14-10-2023, 00:06:56,    263,    0.7,    5.6,   0.00,   0.00, 1007.6,    0.3, -999.0
14-10-2023, 00:07:06,    264,    0.5,    5.6,   0.00,   0.00, 1007.6,    0.4, -999.0
14-10-2023, 00:07:16,    263,    1.2,    5.5,   0.00,   0.00, 1007.6,    0.6, -999.0
14-10-2023, 00:07:26,    263,    0.8,    5.5,   0.00,   0.00, 1007.6,    0.4, -999.0
14-10-2023, 00:07:36,    263,    0.0,    5.5,   0.00,   0.00, 1007.5,    0.4, -999.0
14-10-2023, 00:07:46,    264,    0.7,    5.5,   0.00,   0.00, 1007.7,    0.4, -999.0
14-10-2023, 00:07:56,    263,    1.3,    5.6,   0.00,   0.00, 1007.7,    0.4, -999.0
14-10-2023, 00:08:06,    263,    1.6,    5.6,   0.00,   0.00, 1007.7,    0.4, -999.0
14-10-2023, 00:08:16,    288,    1.5,    5.6,   0.00,   0.00, 1007.7,    0.7, -999.0
14-10-2023, 00:08:26,    288,    0.6,    5.6,   0.00,   0.00, 1007.7,    0.6, -999.0
14-10-2023, 00:08:36,    288,    0.0,    5.5,   0.00,   0.00, 1007.6,    0.4, -999.0
14-10-2023, 00:08:46,    287,    0.1,    5.5,   0.00,   0.00, 1007.6,    0.6, -999.0
14-10-2023, 00:08:56,    287,    0.1,    5.5,   0.00,   0.00, 1007.6,    0.4, -999.0
14-10-2023, 00:09:06,    287,    0.4,    5.5,   0.00,   0.00, 1007.7,    0.4, -999.0
14-10-2023, 00:09:16,    258,    1.7,    5.5,   0.00,   0.00, 1007.7,    0.6, -999.0
14-10-2023, 00:09:26,    268,    1.6,    5.6,   0.00,   0.00, 1007.7,    0.4, -999.0
14-10-2023, 00:09:36,    268,    1.0,    5.6,   0.00,   0.00, 1007.7,    0.4, -999.0
14-10-2023, 00:09:46,    266,    1.3,    5.6,   0.00,   0.00, 1007.7,    0.5, -999.0
14-10-2023, 00:09:56,    266,    1.0,    5.4,   0.00,   0.00, 1007.7,    0.4, -999.0
14-10-2023, 00:10:06,    262,    0.3,    5.5,   0.00,   0.00, 1007.7,    0.3, -999.0
14-10-2023, 00:10:16,    262,    0.6,    5.6,   0.00,   0.00, 1007.7,    0.6, -999.0
14-10-2023, 00:10:25,    262,    0.4,    5.6,   0.00,   0.00, 1007.7,    0.4, -999.0
14-10-2023, 00:10:36,    262,    0.2,    5.5,   0.00,   0.00, 1007.7,    0.3, -999.0
14-10-2023, 00:10:46,    261,    0.0,    5.5,   0.00,   0.00, 1007.6,    0.2, -999.0
14-10-2023, 00:10:55,    261,    0.0,    5.6,   0.00,   0.00, 1007.7,    0.2, -999.0
14-10-2023, 00:11:05,    262,    0.0,    5.5,   0.00,   0.00, 1007.6,    0.4, -999.0
14-10-2023, 00:11:16,    262,    0.0,    5.6,   0.00,   0.00, 1007.6,    0.6, -999.0
14-10-2023, 00:11:26,    262,    0.2,    5.6,   0.00,   0.00, 1007.7,    0.4, -999.0
14-10-2023, 00:11:35,    262,    0.1,    5.6,   0.00,   0.00, 1007.7,    0.3, -999.0
14-10-2023, 00:11:45,    262,    0.0,    5.6,   0.00,   0.00, 1007.7,    0.4, -999.0
14-10-2023, 00:11:56,    262,    0.0,    5.5,   0.00,   0.00, 1007.7,    0.4, -999.0
14-10-2023, 00:12:05,    262,    0.3,    5.5,   0.00,   0.00, 1007.8,    0.3, -999.0
14-10-2023, 00:12:15,    262,    0.5,    5.6,   0.00,   0.00, 1007.8,    0.4, -999.0
14-10-2023, 00:12:25,    262,    0.5,    5.6,   0.00,   0.00, 1007.8,    0.4, -999.0
14-10-2023, 00:12:35,    259,    1.5,    5.6,   0.00,   0.00, 1007.8,    0.6, -999.0
14-10-2023, 00:12:45,    202,    1.7,    5.6,   0.00,   0.00, 1007.8,    0.2, -999.0
14-10-2023, 00:12:55,    202,    1.0,    5.6,   0.00,   0.00, 1007.8,    0.6, -999.0
14-10-2023, 00:13:05,    203,    0.7,    5.6,   0.00,   0.00, 1007.8,    0.4, -999.0
14-10-2023, 00:13:15,    203,    0.0,    5.5,   0.00,   0.00, 1007.7,    0.3, -999.0
14-10-2023, 00:13:25,    302,    1.2,    5.6,   0.00,   0.00, 1007.8,    0.5, -999.0
14-10-2023, 00:13:35,    301,    2.1,    5.6,   0.00,   0.00, 1007.8,    0.2, -999.0
14-10-2023, 00:13:45,    311,    1.4,    5.6,   0.00,   0.00, 1007.8,    0.5, -999.0
14-10-2023, 00:13:55,    289,    0.5,    5.6,   0.00,   0.00, 1007.8,    0.6, -999.0
14-10-2023, 00:14:05,    289,    0.2,    5.5,   0.00,   0.00, 1007.8,    0.3, -999.0
14-10-2023, 00:14:15,    289,    0.0,    5.5,   0.00,   0.00, 1007.7,    0.3, -999.0
14-10-2023, 00:14:25,    235,    1.1,    5.5,   0.00,   0.00, 1007.8,    0.2, -999.0
14-10-2023, 00:14:35,    250,    1.6,    5.6,   0.00,   0.00, 1007.8,    0.3, -999.0
14-10-2023, 00:14:45,    249,    1.1,    5.6,   0.00,   0.00, 1007.8,    0.6, -999.0
14-10-2023, 00:14:55,    251,    1.0,    5.6,   0.00,   0.00, 1007.8,    0.6, -999.0
14-10-2023, 00:15:05,    250,    0.0,    5.5,   0.00,   0.00, 1007.7,    0.4, -999.0
14-10-2023, 00:15:15,    251,    0.0,    5.6,   0.00,   0.00, 1007.7,    0.3, -999.0
14-10-2023, 00:15:25,    294,    0.8,    5.6,   0.00,   0.00, 1007.8,    0.4, -999.0
14-10-2023, 00:15:35,    281,    2.2,    5.6,   0.00,   0.00, 1007.8,    0.4, -999.0
14-10-2023, 00:15:45,    281,    1.5,    5.6,   0.00,   0.00, 1007.9,    0.4, -999.0
14-10-2023, 00:15:54,    280,    1.5,    5.6,   0.00,   0.00, 1007.8,    0.3, -999.0
14-10-2023, 00:16:05,    279,    0.2,    5.5,   0.00,   0.00, 1007.7,    0.4, -999.0
14-10-2023, 00:16:15,    280,    0.0,    5.5,   0.00,   0.00, 1007.7,    0.3, -999.0
14-10-2023, 00:16:24,    280,    0.0,    5.5,   0.00,   0.00, 1007.7,    0.7, -999.0
14-10-2023, 00:16:35,    280,    0.0,    5.5,   0.00,   0.00, 1007.7,    0.3, -999.0
14-10-2023, 00:16:45,    280,    0.0,    5.6,   0.00,   0.00, 1007.7,    0.3, -999.0
14-10-2023, 00:16:54,    280,    0.6,    5.6,   0.00,   0.00, 1007.9,    0.4, -999.0
14-10-2023, 00:17:04,    279,    0.7,    5.6,   0.00,   0.00, 1007.8,    0.3, -999.0
14-10-2023, 00:17:15,    280,    0.8,    5.6,   0.00,   0.00, 1007.8,    0.5, -999.0
14-10-2023, 00:17:25,    283,    1.4,    5.6,   0.00,   0.00, 1007.9,    0.4, -999.0
14-10-2023, 00:17:34,    285,    1.5,    5.6,   0.00,   0.00, 1007.9,    0.4, -999.0
14-10-2023, 00:17:44,    285,    0.1,    5.6,   0.00,   0.00, 1007.8,    0.3, -999.0
14-10-2023, 00:17:55,    284,    0.3,    5.5,   0.00,   0.00, 1007.8,    0.5, -999.0
14-10-2023, 00:18:04,    284,    0.0,    5.6,   0.00,   0.00, 1007.8,    0.6, -999.0
14-10-2023, 00:18:14,    284,    0.8,    5.7,   0.00,   0.00, 1007.8,    0.5, -999.0
14-10-2023, 00:18:24,    283,    1.0,    5.6,   0.00,   0.00, 1007.8,    0.4, -999.0
14-10-2023, 00:18:34,    262,    2.1,    5.6,   0.00,   0.00, 1007.9,    0.5, -999.0
14-10-2023, 00:18:44,    262,    1.2,    5.6,   0.00,   0.00, 1007.9,    0.8, -999.0
14-10-2023, 00:18:54,    262,    0.9,    5.6,   0.00,   0.00, 1007.9,    0.7, -999.0
14-10-2023, 00:19:04,    261,    1.1,    5.6,   0.00,   0.00, 1007.8,    0.1, -999.0
14-10-2023, 00:19:14,    261,    0.2,    5.6,   0.00,   0.00, 1007.8,    0.6, -999.0
14-10-2023, 00:19:24,    261,    0.6,    5.5,   0.00,   0.00, 1007.8,    0.2, -999.0
14-10-2023, 00:19:34,    262,    0.7,    5.6,   0.00,   0.00, 1007.9,    0.4, -999.0
14-10-2023, 00:19:44,    261,    0.0,    5.5,   0.00,   0.00, 1007.8,    0.5, -999.0
14-10-2023, 00:19:54,    261,    0.0,    5.5,   0.00,   0.00, 1007.7,    0.4, -999.0
14-10-2023, 00:20:04,    262,    0.0,    5.6,   0.00,   0.00, 1007.7,    0.3, -999.0
14-10-2023, 00:20:14,    256,    0.0,    5.5,   0.00,   0.00, 1007.8,    0.5, -999.0
14-10-2023, 00:20:24,    261,    0.0,    5.5,   0.00,   0.00, 1007.8,    0.3, -999.0
14-10-2023, 00:20:34,    261,    0.0,    5.5,   0.00,   0.00, 1007.8,    0.3, -999.0
14-10-2023, 00:20:44,    262,    0.0,    5.6,   0.00,   0.00, 1007.8,    0.2, -999.0
14-10-2023, 00:20:54,    261,    0.0,    5.5,   0.00,   0.00, 1007.8,    0.4, -999.0
14-10-2023, 00:21:04,    261,    0.0,    5.6,   0.00,   0.00, 1007.8,    0.3, -999.0
14-10-2023, 00:21:14,    262,    0.0,    5.5,   0.00,   0.00, 1007.8,    0.4, -999.0
14-10-2023, 00:21:24,    261,    0.0,    5.5,   0.00,   0.00, 1007.8,    0.2, -999.0
14-10-2023, 00:21:34,    261,    0.9,    5.6,   0.00,   0.00, 1007.9,    0.3, -999.0
14-10-2023, 00:21:44,    261,    0.2,    5.5,   0.00,   0.00, 1007.8,    0.4, -999.0
14-10-2023, 00:21:54,    261,    0.0,    5.5,   0.00,   0.00, 1007.8,    0.5, -999.0
14-10-2023, 00:22:04,    262,    0.5,    5.5,   0.00,   0.00, 1007.8,    0.3, -999.0
14-10-2023, 00:22:13,    262,    1.4,    5.6,   0.00,   0.00, 1007.9,    0.3, -999.0
14-10-2023, 00:22:24,    265,    1.6,    5.5,   0.00,   0.00, 1007.9,    0.5, -999.0
14-10-2023, 00:22:34,    263,    0.9,    5.5,   0.00,   0.00, 1007.9,    0.4, -999.0
14-10-2023, 00:22:44,    263,    0.0,    5.5,   0.00,   0.00, 1007.8,    0.2, -999.0
14-10-2023, 00:22:53,    263,    0.0,    5.5,   0.00,   0.00, 1007.8,    0.5, -999.0
14-10-2023, 00:23:04,    265,    1.1,    5.5,   0.00,   0.00, 1007.9,    0.5, -999.0
14-10-2023, 00:23:14,    264,    0.6,    5.5,   0.00,   0.00, 1007.9,    0.3, -999.0
14-10-2023, 00:23:23,    263,    0.1,    5.5,   0.00,   0.00, 1007.8,    0.5, -999.0
14-10-2023, 00:23:33,    264,    0.0,    5.4,   0.00,   0.00, 1007.8,    0.5, -999.0
14-10-2023, 00:23:44,    264,    0.0,    5.5,   0.00,   0.00, 1007.9,    0.2, -999.0
14-10-2023, 00:23:53,    264,    0.9,    5.5,   0.00,   0.00, 1007.9,    0.5, -999.0
14-10-2023, 00:24:03,    263,    1.4,    5.6,   0.00,   0.00, 1008.0,    0.4, -999.0
14-10-2023, 00:24:13,    263,    1.1,    5.5,   0.00,   0.00, 1008.0,    0.3, -999.0
14-10-2023, 00:24:23,    263,    0.7,    5.5,   0.00,   0.00, 1008.0,    0.5, -999.0
14-10-2023, 00:24:33,    263,    0.2,    5.5,   0.00,   0.00, 1007.9,    0.4, -999.0
14-10-2023, 00:24:43,    263,    0.0,    5.4,   0.00,   0.00, 1007.8,    0.2, -999.0
14-10-2023, 00:24:53,    263,    0.0,    5.3,   0.00,   0.00, 1007.9,    0.4, -999.0
14-10-2023, 00:25:03,    263,    0.2,    5.5,   0.00,   0.00, 1007.9,    0.1, -999.0
14-10-2023, 00:25:13,    263,    0.0,    5.4,   0.00,   0.00, 1007.9,    0.3, -999.0
14-10-2023, 00:25:23,    263,    0.0,    5.4,   0.00,   0.00, 1007.9,    0.3, -999.0
14-10-2023, 00:25:33,    263,    0.0,    5.4,   0.00,   0.00, 1007.9,    0.4, -999.0
14-10-2023, 00:25:43,    263,    0.0,    5.4,   0.00,   0.00, 1007.9,    0.4, -999.0
14-10-2023, 00:25:53,    263,    0.5,    5.5,   0.00,   0.00, 1008.0,    0.6, -999.0
14-10-2023, 00:26:03,    263,    0.0,    5.4,   0.00,   0.00, 1007.8,    0.3, -999.0
14-10-2023, 00:26:13,    263,    0.0,    5.4,   0.00,   0.00, 1007.8,    0.4, -999.0
14-10-2023, 00:26:23,    264,    0.4,    5.4,   0.00,   0.00, 1008.0,    0.7, -999.0
14-10-2023, 00:26:33,    263,    0.9,    5.5,   0.00,   0.00, 1008.0,    0.3, -999.0
14-10-2023, 00:26:43,    272,    1.4,    5.4,   0.00,   0.00, 1008.0,    0.5, -999.0
14-10-2023, 00:26:53,    271,    1.0,    5.4,   0.00,   0.00, 1008.0,    0.5, -999.0
14-10-2023, 00:27:03,    275,    1.7,    5.5,   0.00,   0.00, 1008.0,    0.4, -999.0
14-10-2023, 00:27:13,    276,    0.9,    5.4,   0.00,   0.00, 1008.0,    0.6, -999.0
14-10-2023, 00:27:23,    274,    2.1,    5.4,   0.00,   0.00, 1008.0,    0.4, -999.0
14-10-2023, 00:27:33,    274,    1.5,    5.3,   0.00,   0.00, 1008.0,    0.7, -999.0
14-10-2023, 00:27:43,    274,    1.4,    5.4,   0.00,   0.00, 1008.0,    0.2, -999.0
14-10-2023, 00:27:53,    274,    1.2,    5.4,   0.00,   0.00, 1008.0,    0.3, -999.0
14-10-2023, 00:28:02,    274,    0.6,    5.4,   0.00,   0.00, 1008.0,    0.4, -999.0
14-10-2023, 00:28:13,    274,    0.2,    5.3,   0.00,   0.00, 1007.9,    0.7, -999.0
14-10-2023, 00:28:23,    274,    0.0,    5.3,   0.00,   0.00, 1007.9,    0.4, -999.0
14-10-2023, 00:28:33,    275,    1.3,    5.4,   0.00,   0.00, 1008.0,    0.2, -999.0
14-10-2023, 00:28:42,    258,    1.3,    5.4,   0.00,   0.00, 1008.1,    0.3, -999.0
14-10-2023, 00:28:53,    258,    0.5,    5.4,   0.00,   0.00, 1008.0,    0.6, -999.0
14-10-2023, 00:29:03,    258,    0.0,    5.3,   0.00,   0.00, 1007.9,    0.3, -999.0
14-10-2023, 00:29:12,    258,    0.9,    5.4,   0.00,   0.00, 1008.0,    0.8, -999.0
14-10-2023, 00:29:23,    258,    0.2,    5.3,   0.00,   0.00, 1008.0,    0.3, -999.0
14-10-2023, 00:29:33,    258,    0.0,    5.3,   0.00,   0.00, 1007.9,    0.3, -999.0
14-10-2023, 00:29:42,    258,    0.0,    5.3,   0.00,   0.00, 1007.9,    0.3, -999.0
14-10-2023, 00:29:52,    258,    0.0,    5.2,   0.00,   0.00, 1007.9,    0.5, -999.0
14-10-2023, 00:30:03,    258,    0.0,    5.3,   0.00,   0.00, 1007.9,    0.3, -999.0
14-10-2023, 00:30:12,    258,    0.1,    5.3,   0.00,   0.00, 1008.0,    0.3, -999.0
14-10-2023, 00:30:22,    258,    0.4,    5.4,   0.00,   0.00, 1008.0,    0.4, -999.0
14-10-2023, 00:30:32,    258,    0.0,    5.4,   0.00,   0.00, 1007.9,    0.3, -999.0
14-10-2023, 00:30:43,    258,    0.3,    5.4,   0.00,   0.00, 1008.0,    0.4, -999.0
14-10-2023, 00:30:52,    258,    0.2,    5.4,   0.00,   0.00, 1008.0,    0.3, -999.0
14-10-2023, 00:31:02,    257,    0.0,    5.3,   0.00,   0.00, 1007.9,    0.3, -999.0
14-10-2023, 00:31:12,    258,    0.0,    5.3,   0.00,   0.00, 1007.9,    0.3, -999.0
14-10-2023, 00:31:22,    258,    0.0,    5.3,   0.00,   0.00, 1007.9,    0.4, -999.0
14-10-2023, 00:31:32,    258,    0.0,    5.3,   0.00,   0.00, 1007.9,    0.4, -999.0
14-10-2023, 00:31:42,    258,    0.0,    5.2,   0.00,   0.00, 1008.0,    0.3, -999.0
14-10-2023, 00:31:52,    258,    0.0,    5.3,   0.00,   0.00, 1008.0,    0.5, -999.0
14-10-2023, 00:32:02,    258,    0.0,    5.1,   0.00,   0.00, 1008.0,    0.4, -999.0
14-10-2023, 00:32:12,    258,    0.0,    5.2,   0.00,   0.00, 1008.0,    0.6, -999.0
14-10-2023, 00:32:22,    262,    0.9,    5.3,   0.00,   0.00, 1008.1,    0.4, -999.0
14-10-2023, 00:32:32,    266,    1.3,    5.4,   0.00,   0.00, 1008.2,    0.4, -999.0
14-10-2023, 00:32:42,    266,    0.5,    5.4,   0.00,   0.00, 1008.2,    0.5, -999.0
14-10-2023, 00:32:52,    266,    0.5,    5.4,   0.00,   0.00, 1008.2,    0.4, -999.0
14-10-2023, 00:33:02,    266,    0.3,    5.4,   0.00,   0.00, 1008.2,    0.5, -999.0
14-10-2023, 00:33:12,    266,    0.0,    5.3,   0.00,   0.00, 1008.1,    0.5, -999.0
14-10-2023, 00:33:22,    266,    0.9,    5.4,   0.00,   0.00, 1008.2,    0.3, -999.0
14-10-2023, 00:33:32,    266,    0.3,    5.3,   0.00,   0.00, 1008.2,    0.5, -999.0
14-10-2023, 00:33:42,    266,    0.0,    5.3,   0.00,   0.00, 1008.1,    0.3, -999.0
14-10-2023, 00:33:51,    266,    0.0,    5.3,   0.00,   0.00, 1008.1,    0.4, -999.0
14-10-2023, 00:34:02,    266,    0.0,    5.3,   0.00,   0.00, 1008.0,    0.4, -999.0
14-10-2023, 00:34:12,    266,    0.0,    5.2,   0.00,   0.00, 1008.1,    0.5, -999.0
14-10-2023, 00:34:22,    266,    0.0,    5.2,   0.00,   0.00, 1008.1,    0.3, -999.0
14-10-2023, 00:34:31,    266,    0.0,    5.3,   0.00,   0.00, 1008.1,    0.5, -999.0
14-10-2023, 00:34:42,    266,    0.0,    5.2,   0.00,   0.00, 1008.1,    0.4, -999.0
14-10-2023, 00:34:52,    266,    1.3,    5.3,   0.00,   0.00, 1008.2,    0.3, -999.0
14-10-2023, 00:35:01,    267,    1.5,    5.3,   0.00,   0.00, 1008.2,    0.3, -999.0
14-10-2023, 00:35:12,    267,    1.0,    5.3,   0.00,   0.00, 1008.2,    0.4, -999.0
14-10-2023, 00:35:22,    267,    0.6,    5.3,   0.00,   0.00, 1008.2,    0.4, -999.0
14-10-2023, 00:35:31,    267,    0.0,    5.3,   0.00,   0.00, 1008.1,    0.3, -999.0
14-10-2023, 00:35:41,    266,    0.0,    5.3,   0.00,   0.00, 1008.1,    0.4, -999.0
14-10-2023, 00:35:52,    267,    0.0,    5.2,   0.00,   0.00, 1008.1,    0.6, -999.0
14-10-2023, 00:36:01,    267,    0.0,    5.3,   0.00,   0.00, 1008.1,    0.5, -999.0
14-10-2023, 00:36:11,    267,    0.1,    5.3,   0.00,   0.00, 1008.1,    0.5, -999.0
14-10-2023, 00:36:21,    266,    0.2,    5.4,   0.00,   0.00, 1008.2,    0.4, -999.0
14-10-2023, 00:36:32,    267,    0.0,    5.2,   0.00,   0.00, 1008.1,    0.4, -999.0
14-10-2023, 00:36:41,    267,    0.0,    5.2,   0.00,   0.00, 1008.1,    0.3, -999.0
14-10-2023, 00:36:51,    267,    0.0,    5.2,   0.00,   0.00, 1008.2,    0.5, -999.0
14-10-2023, 00:37:01,    267,    0.0,    5.2,   0.00,   0.00, 1008.2,    0.4, -999.0
14-10-2023, 00:37:11,    268,    0.3,    5.3,   0.00,   0.00, 1008.2,    0.3, -999.0
14-10-2023, 00:37:21,    267,    0.1,    5.2,   0.00,   0.00, 1008.2,    0.4, -999.0
14-10-2023, 00:37:31,    267,    0.0,    5.1,   0.00,   0.00, 1008.2,    0.3, -999.0
14-10-2023, 00:37:41,    267,    0.0,    5.2,   0.00,   0.00, 1008.2,    0.5, -999.0
14-10-2023, 00:37:51,    267,    0.2,    5.3,   0.00,   0.00, 1008.2,    0.4, -999.0
14-10-2023, 00:38:01,    267,    0.0,    5.2,   0.00,   0.00, 1008.2,    0.5, -999.0
14-10-2023, 00:38:11,    267,    0.0,    5.2,   0.00,   0.00, 1008.2,    0.5, -999.0
14-10-2023, 00:38:21,    267,    0.1,    5.2,   0.00,   0.00, 1008.3,    0.5, -999.0
14-10-2023, 00:38:31,    267,    0.0,    5.1,   0.00,   0.00, 1008.2,    0.5, -999.0
14-10-2023, 00:38:41,    267,    0.0,    5.1,   0.00,   0.00, 1008.2,    0.3, -999.0
14-10-2023, 00:38:51,    267,    0.0,    5.1,   0.00,   0.00, 1008.2,    0.3, -999.0
14-10-2023, 00:39:01,    267,    0.0,    5.0,   0.00,   0.00, 1008.2,    0.4, -999.0
14-10-2023, 00:39:11,    267,    0.0,    5.2,   0.00,   0.00, 1008.2,    0.4, -999.0
14-10-2023, 00:39:21,    267,    0.0,    5.2,   0.00,   0.00, 1008.2,    0.4, -999.0
14-10-2023, 00:39:31,    267,    0.1,    5.2,   0.00,   0.00, 1008.3,    0.6, -999.0
14-10-2023, 00:39:41,    267,    0.1,    5.1,   0.00,   0.00, 1008.3,    0.5, -999.0
14-10-2023, 00:39:51,    267,    0.0,    5.2,   0.00,   0.00, 1008.2,    0.2, -999.0
14-10-2023, 00:40:01,    267,    0.0,    5.1,   0.00,   0.00, 1008.2,    0.3, -999.0
14-10-2023, 00:40:11,    268,    0.2,    5.2,   0.00,   0.00, 1008.3,    0.3, -999.0
14-10-2023, 00:40:21,    267,    0.1,    5.2,   0.00,   0.00, 1008.3,    0.3, -999.0
14-10-2023, 00:40:31,    267,    0.0,    5.2,   0.00,   0.00, 1008.3,    0.5, -999.0
14-10-2023, 00:40:41,    267,    0.0,    5.1,   0.00,   0.00, 1008.3,    0.3, -999.0
14-10-2023, 00:40:50,    267,    0.0,    5.1,   0.00,   0.00, 1008.3,    0.3, -999.0
14-10-2023, 00:41:01,    267,    0.0,    5.0,   0.00,   0.00, 1008.3,    0.6, -999.0
14-10-2023, 00:41:11,    267,    0.0,    5.1,   0.00,   0.00, 1008.3,    0.4, -999.0
14-10-2023, 00:41:20,    267,    0.0,    5.1,   0.00,   0.00, 1008.2,    0.4, -999.0
14-10-2023, 00:41:30,    267,    0.0,    5.1,   0.00,   0.00, 1008.3,    0.3, -999.0
14-10-2023, 00:41:41,    268,    0.0,    5.1,   0.00,   0.00, 1008.3,    0.3, -999.0
14-10-2023, 00:41:51,    267,    0.0,    5.1,   0.00,   0.00, 1008.2,    0.3, -999.0
14-10-2023, 00:42:00,    268,    0.0,    5.1,   0.00,   0.00, 1008.3,    0.3, -999.0
14-10-2023, 00:42:10,    268,    0.0,    5.1,   0.00,   0.00, 1008.3,    0.3, -999.0
14-10-2023, 00:42:21,    267,    0.0,    5.1,   0.00,   0.00, 1008.3,    0.3, -999.0
14-10-2023, 00:42:30,    268,    0.0,    5.1,   0.00,   0.00, 1008.3,    0.3, -999.0
14-10-2023, 00:42:40,    267,    0.0,    5.1,   0.00,   0.00, 1008.3,    0.5, -999.0
14-10-2023, 00:42:50,    267,    0.1,    5.2,   0.00,   0.00, 1008.3,    0.3, -999.0
14-10-2023, 00:43:00,    267,    0.2,    5.2,   0.00,   0.00, 1008.4,    0.4, -999.0
14-10-2023, 00:43:10,    267,    0.0,    5.2,   0.00,   0.00, 1008.3,    0.3, -999.0
14-10-2023, 00:43:20,    267,    0.0,    5.1,   0.00,   0.00, 1008.3,    0.4, -999.0
14-10-2023, 00:43:30,    267,    0.0,    5.1,   0.00,   0.00, 1008.3,    0.3, -999.0
14-10-2023, 00:43:40,    267,    0.0,    5.2,   0.00,   0.00, 1008.2,    0.3, -999.0
14-10-2023, 00:43:50,    267,    0.0,    5.2,   0.00,   0.00, 1008.3,    0.3, -999.0
14-10-2023, 00:44:00,    267,    0.0,    5.1,   0.00,   0.00, 1008.3,    0.2, -999.0
14-10-2023, 00:44:10,    267,    0.0,    5.1,   0.00,   0.00, 1008.3,    0.4, -999.0
14-10-2023, 00:44:20,    267,    0.2,    5.2,   0.00,   0.00, 1008.4,    0.6, -999.0
14-10-2023, 00:44:30,    267,    0.7,    5.2,   0.00,   0.00, 1008.4,    0.2, -999.0
14-10-2023, 00:44:40,    267,    0.0,    5.1,   0.00,   0.00, 1008.3,    0.3, -999.0
14-10-2023, 00:44:50,    267,    0.0,    5.1,   0.00,   0.00, 1008.3,    0.3, -999.0
14-10-2023, 00:45:00,    267,    0.0,    5.1,   0.00,   0.00, 1008.3,    0.3, -999.0
14-10-2023, 00:45:10,    267,    0.1,    5.1,   0.00,   0.00, 1008.3,    0.3, -999.0
14-10-2023, 00:45:20,    267,    0.9,    5.1,   0.00,   0.00, 1008.4,    0.7, -999.0
14-10-2023, 00:45:30,    267,    0.2,    5.1,   0.00,   0.00, 1008.3,    0.5, -999.0
14-10-2023, 00:45:40,    267,    0.0,    5.0,   0.00,   0.00, 1008.3,    0.3, -999.0
14-10-2023, 00:45:50,    267,    0.2,    5.1,   0.00,   0.00, 1008.3,    0.2, -999.0
14-10-2023, 00:46:00,    267,    1.3,    5.2,   0.00,   0.00, 1008.4,    0.2, -999.0
14-10-2023, 00:46:10,    268,    0.8,    5.2,   0.00,   0.00, 1008.4,    0.3, -999.0
14-10-2023, 00:46:20,    267,    0.4,    5.1,   0.00,   0.00, 1008.4,    0.7, -999.0
14-10-2023, 00:46:30,    269,    0.0,    5.1,   0.00,   0.00, 1008.3,    0.3, -999.0
14-10-2023, 00:46:39,    268,    0.1,    5.1,   0.00,   0.00, 1008.3,    0.5, -999.0